When you browse on this site, cookies collect data to enhance your experience and personalize the content and advertising you see.
Visit our Privacy Policy to learn more. By continuing to use the site, you agree to this use of cookies and data.
  • en Suisse
  • Liste des pays
  • À 7 jours
  • Température de l'eau
  • Carte météo
  • Widgets météo
  • user-avatar
    Se connecter

    Météo par heure à Brugges

    Ce jour, 25 Février, Mardi

    Heure Température Précipitation Vent Pression Humidité
    00:00 +7°C° 0 mm 9 m/s 752 mmHg 74%
    01:00 +7°C° 0 mm 9 m/s 752 mmHg 72%
    02:00 +6°C° 0 mm 9 m/s 752 mmHg 70%
    03:00 +6°C° 0 mm 9 m/s 752 mmHg 68%
    04:00 +5°C° 0 mm 8 m/s 752 mmHg 68%
    05:00 +5°C° 0 mm 8 m/s 752 mmHg 68%
    06:00 +4°C° 0 mm 8 m/s 752 mmHg 67%
    07:00 +5°C° 0 mm 9 m/s 752 mmHg 65%
    08:00 +5°C° 0 mm 9 m/s 751 mmHg 64%
    09:00 +5°C° 0 mm 9 m/s 751 mmHg 62%
    10:00 +5°C° 0.1 mm 9 m/s 751 mmHg 63%
    11:00 +6°C° 0.1 mm 9 m/s 750 mmHg 65%
    12:00 +6°C° 0.1 mm 9 m/s 750 mmHg 67%
    13:00 +6°C° 0.1 mm 9 m/s 749 mmHg 63%
    14:00 +6°C° 0.1 mm 9 m/s 749 mmHg 60%
    15:00 +6°C° 0.1 mm 8 m/s 748 mmHg 56%
    16:00 +5°C° 0.2 mm 8 m/s 748 mmHg 63%
    17:00 +5°C° 0.2 mm 7 m/s 747 mmHg 70%
    18:00 +4°C° 0.2 mm 7 m/s 746 mmHg 77%
    19:00 +2°C° 0.6 mm 9 m/s 746 mmHg 77%
    20:00 +2°C° 0.6 mm 10 m/s 745 mmHg 76%
    21:00 +2°C° 0.6 mm 12 m/s 745 mmHg 75%
    22:00 0°C° 0.2 mm 12 m/s 745 mmHg 73%
    23:00 0°C° 0.2 mm 12 m/s 745 mmHg 71%

    Demain, 26 Février, Mercredi

    Heure Température Précipitation Vent Pression Humidité
    00:00 +1°C° 0.2 mm 11 m/s 745 mmHg 69%
    01:00 -1°C° 0.2 mm 11 m/s 745 mmHg 71%
    02:00 -1°C° 0.2 mm 11 m/s 745 mmHg 73%
    03:00 -1°C° 0.2 mm 11 m/s 744 mmHg 74%
    04:00 -1°C° 0.4 mm 11 m/s 745 mmHg 79%
    05:00 -1°C° 0.4 mm 11 m/s 745 mmHg 83%
    06:00 -1°C° 0.4 mm 11 m/s 746 mmHg 88%
    07:00 -1°C° 0.2 mm 11 m/s 747 mmHg 83%
    08:00 +1°C° 0.2 mm 10 m/s 747 mmHg 78%
    09:00 +1°C° 0.2 mm 9 m/s 748 mmHg 73%
    10:00 +2°C° 0 mm 9 m/s 749 mmHg 71%
    11:00 +2°C° 0 mm 9 m/s 750 mmHg 69%
    12:00 +3°C° 0 mm 9 m/s 751 mmHg 68%
    13:00 +3°C° 0.2 mm 9 m/s 751 mmHg 67%
    14:00 +3°C° 0.2 mm 9 m/s 752 mmHg 66%
    15:00 +5°C° 0.2 mm 9 m/s 752 mmHg 65%
    16:00 +3°C° 0.3 mm 9 m/s 753 mmHg 67%
    17:00 +2°C° 0.3 mm 9 m/s 753 mmHg 70%
    18:00 +2°C° 0.3 mm 9 m/s 754 mmHg 72%
    19:00 +2°C° 0.1 mm 8 m/s 754 mmHg 70%
    20:00 +1°C° 0.1 mm 8 m/s 755 mmHg 68%
    21:00 +2°C° 0.1 mm 7 m/s 755 mmHg 67%
    22:00 +2°C° 0 mm 7 m/s 755 mmHg 68%
    23:00 +1°C° 0 mm 6 m/s 755 mmHg 70%

    Après-demain, 27 Février, Jeudi

    Heure Température Précipitation Vent Pression Humidité
    00:00 +1°C° 0 mm 6 m/s 755 mmHg 72%
    01:00 +1°C° 0 mm 6 m/s 754 mmHg 75%
    02:00 +1°C° 0 mm 6 m/s 754 mmHg 78%
    03:00 -1°C° 0 mm 6 m/s 753 mmHg 81%
    04:00 -1°C° 0.6 mm 6 m/s 753 mmHg 86%
    05:00 -1°C° 0.6 mm 6 m/s 752 mmHg 91%
    06:00 +1°C° 0.6 mm 5 m/s 751 mmHg 96%
    07:00 +1°C° 0.7 mm 5 m/s 750 mmHg 96%
    08:00 +1°C° 0.7 mm 5 m/s 749 mmHg 95%
    09:00 +1°C° 0.7 mm 5 m/s 748 mmHg 95%
    10:00 +1°C° 0.4 mm 4 m/s 748 mmHg 95%
    11:00 +3°C° 0.4 mm 2 m/s 747 mmHg 95%
    12:00 +3°C° 0.4 mm 1 m/s 747 mmHg 95%
    13:00 +2°C° 0.6 mm 3 m/s 748 mmHg 94%
    14:00 +1°C° 0.6 mm 6 m/s 748 mmHg 93%
    15:00 0°C° 0.6 mm 8 m/s 749 mmHg 92%
    16:00 0°C° 0.1 mm 8 m/s 750 mmHg 87%
    17:00 +1°C° 0.1 mm 8 m/s 751 mmHg 81%
    18:00 +1°C° 0.1 mm 8 m/s 753 mmHg 75%
    19:00 +1°C° 0 mm 8 m/s 754 mmHg 74%
    20:00 +2°C° 0 mm 7 m/s 755 mmHg 72%
    21:00 +2°C° 0 mm 7 m/s 756 mmHg 71%
    22:00 +1°C° 0 mm 6 m/s 757 mmHg 72%
    23:00 +1°C° 0 mm 6 m/s 758 mmHg 73%

    28 Février, Vendredi

    Heure Température Précipitation Vent Pression Humidité
    00:00 +1°C° 0 mm 6 m/s 759 mmHg 75%
    01:00 +1°C° 0 mm 5 m/s 759 mmHg 77%
    02:00 0°C° 0 mm 5 m/s 759 mmHg 80%
    03:00 0°C° 0 mm 4 m/s 760 mmHg 82%
    04:00 0°C° 0 mm 4 m/s 760 mmHg 83%
    05:00 0°C° 0 mm 4 m/s 760 mmHg 84%
    06:00 -1°C° 0 mm 4 m/s 760 mmHg 85%
    07:00 0°C° 0 mm 4 m/s 760 mmHg 82%
    08:00 +1°C° 0 mm 5 m/s 760 mmHg 78%
    09:00 +2°C° 0 mm 6 m/s 760 mmHg 75%
    10:00 +2°C° 0 mm 6 m/s 759 mmHg 74%
    11:00 +2°C° 0 mm 7 m/s 759 mmHg 74%
    12:00 +2°C° 0 mm 8 m/s 758 mmHg 73%
    13:00 +1°C° 0.8 mm 8 m/s 757 mmHg 80%
    14:00 0°C° 0.8 mm 9 m/s 756 mmHg 87%
    15:00 -1°C° 0.8 mm 9 m/s 755 mmHg 95%
    16:00 0°C° 0.4 mm 9 m/s 754 mmHg 94%
    17:00 0°C° 0.4 mm 8 m/s 753 mmHg 93%
    18:00 +1°C° 0.4 mm 8 m/s 751 mmHg 92%
    19:00 +2°C° 0.2 mm 8 m/s 751 mmHg 93%
    20:00 +4°C° 0.2 mm 8 m/s 750 mmHg 94%
    21:00 +5°C° 0.2 mm 7 m/s 749 mmHg 95%
    22:00 +6°C° 0.6 mm 7 m/s 748 mmHg 95%
    23:00 +6°C° 0.6 mm 8 m/s 747 mmHg 95%

    29 Février, Samedi

    Heure Température Précipitation Vent Pression Humidité
    00:00 +7°C° 0.6 mm 8 m/s 746 mmHg 95%
    01:00 +7°C° 0.4 mm 9 m/s 744 mmHg 90%
    02:00 +7°C° 0.4 mm 10 m/s 743 mmHg 85%
    03:00 +8°C° 0.4 mm 12 m/s 741 mmHg 81%
    04:00 +8°C° 0.3 mm 12 m/s 740 mmHg 81%
    05:00 +8°C° 0.3 mm 12 m/s 739 mmHg 82%
    06:00 +8°C° 0.3 mm 13 m/s 738 mmHg 82%
    07:00 +7°C° 0.5 mm 12 m/s 739 mmHg 78%
    08:00 +4°C° 0.5 mm 12 m/s 740 mmHg 74%
    09:00 +3°C° 0.5 mm 11 m/s 741 mmHg 70%
    10:00 +3°C° 0.3 mm 11 m/s 741 mmHg 68%
    11:00 +3°C° 0.3 mm 11 m/s 742 mmHg 67%
    12:00 +3°C° 0.3 mm 11 m/s 743 mmHg 65%
    13:00 +3°C° 0.2 mm 12 m/s 743 mmHg 63%
    14:00 +4°C° 0.2 mm 12 m/s 743 mmHg 60%
    15:00 +4°C° 0.2 mm 12 m/s 743 mmHg 58%
    16:00 +3°C° 0.2 mm 12 m/s 743 mmHg 60%
    17:00 +3°C° 0.2 mm 11 m/s 744 mmHg 62%
    18:00 +2°C° 0.2 mm 10 m/s 744 mmHg 64%
    19:00 +2°C° 0 mm 10 m/s 744 mmHg 65%
    20:00 +1°C° 0 mm 9 m/s 745 mmHg 66%
    21:00 +1°C° 0 mm 9 m/s 745 mmHg 67%
    22:00 +1°C° 0 mm 9 m/s 745 mmHg 69%
    23:00 +1°C° 0 mm 8 m/s 746 mmHg 71%

    1 Mars, Dimanche

    Heure Température Précipitation Vent Pression Humidité
    00:00 0°C° 0 mm 8 m/s 746 mmHg 72%
    01:00 0°C° 0.1 mm 8 m/s 746 mmHg 75%
    02:00 0°C° 0.1 mm 8 m/s 746 mmHg 77%
    03:00 0°C° 0.1 mm 7 m/s 746 mmHg 80%
    04:00 0°C° 0 mm 7 m/s 746 mmHg 83%
    05:00 0°C° 0 mm 7 m/s 746 mmHg 85%
    06:00 -1°C° 0 mm 6 m/s 747 mmHg 88%
    07:00 +1°C° 0 mm 6 m/s 747 mmHg 82%
    08:00 +2°C° 0 mm 7 m/s 747 mmHg 76%
    09:00 +3°C° 0 mm 7 m/s 748 mmHg 70%
    10:00 +4°C° 0.1 mm 8 m/s 748 mmHg 65%
    11:00 +5°C° 0.1 mm 8 m/s 749 mmHg 60%
    12:00 +5°C° 0.1 mm 9 m/s 749 mmHg 55%
    13:00 +5°C° 0 mm 9 m/s 750 mmHg 54%
    14:00 +6°C° 0 mm 8 m/s 750 mmHg 52%
    15:00 +6°C° 0 mm 8 m/s 750 mmHg 50%
    16:00 +5°C° 0 mm 7 m/s 751 mmHg 55%
    17:00 +4°C° 0 mm 6 m/s 751 mmHg 61%
    18:00 +3°C° 0 mm 5 m/s 752 mmHg 66%
    19:00 +2°C° 0 mm 5 m/s 752 mmHg 69%
    20:00 +2°C° 0 mm 5 m/s 753 mmHg 73%
    21:00 +2°C° 0 mm 5 m/s 753 mmHg 77%
    22:00 +1°C° 0 mm 5 m/s 753 mmHg 79%
    23:00 +1°C° 0 mm 5 m/s 753 mmHg 81%
    Voir plus